Regional Weather Roundup
Issued by NWS

Home | Current Version | Previous Version | Graphics & Text | Print | Product List | Glossary Off
Versions: 1 2 3 4 5 6 7 8 9 10 11 12 13 14 15 16 17 18 19 20 21 22 23 24 25 26 27 28 29 30 31 32 33 34 35 36 37 38 39 40 41 42 43 44 45 46 47 48 49 50

000
ASUS43 KMKX 040210
RWRWI

WISCONSIN REGIONAL WEATHER ROUNDUP
NATIONAL WEATHER SERVICE MILWAUKEE/SULLIVAN WI
800 PM CST TUE MAR 03 2015

NOTE: "FAIR" INDICATES FEW OR NO CLOUDS BELOW 12,000 FEET WITH NO
SIGNIFICANT WEATHER AND/OR OBSTRUCTIONS TO VISIBILITY.

WIZ001-002-006>008-014>016-023>028-040300-
NORTHWEST WISCONSIN

CITY           SKY/WX    TMP DP  RH WIND       PRES   REMARKS
SUPERIOR ARPT  CLEAR     13   0  56 NW15G22   29.84R WCI  -3
ASHLAND        CLEAR     16   3  56 W15G26    29.77R WCI   1
HAYWARD        CLEAR     16   2  54 W12G20    29.77R WCI   3
SIREN          CLEAR     15   2  58 NW17G25   29.84R WCI  -1
CUMBERLAND     CLEAR     16   3  57 W13       29.79R WCI   2
RICE LAKE      CLEAR     18   4  56 W14G21    29.81R WCI   4
CHETEK         CLEAR     18   5  57 W12       29.79R WCI   5
LADYSMITH      CLEAR     20   5  51 W14       29.76R WCI   7
EAU CLAIRE     CLEAR     20   7  57 W21G26    29.81R WCI   4
MENOMONIE      CLEAR     19   8  61 W16       29.84R WCI   4
NEW RICHMOND   CLEAR     14   3  62 W20G28    29.87R WCI  -3
OSCEOLA        PTCLDY    14   4  62 W21G28    29.91R WCI  -3
$$

WIZ003>005-009-010-017-018-040300-
NORTH CENTRAL WISCONSIN

CITY           SKY/WX    TMP DP  RH WIND       PRES   REMARKS
MANITOWISH WTR PTCLDY    17   7  67 W12G18    29.67R WCI   4
ARBOR VITAE    FLURRIES  20  11  69 NW12G18   29.65R WCI   7
WOODRUFF       FLURRIES  20  11  69 NW12G18   29.65R WCI   7
RHINELANDER    CLOUDY    21  13  71 W14G21    29.64R WCI   8
EAGLE RIVER    PTCLDY    19  11  71 NW15      29.62R WCI   5
LAND O LAKES   CLOUDY    20  12  71 NW15G23   29.64R WCI   6
PHILLIPS       PTCLDY    19   8  64 NW8       29.68R WCI   8
TOMAHAWK       FAIR      21  13  69 W12G20    29.67R WCI  10
MEDFORD        CLEAR     22  12  66 NW16G24   29.69R WCI   8
MERRILL        MOCLDY    25  17  71 NW12      29.67R WCI  14
$$

WIZ029-030-035-036-043>047-040300-
CENTRAL WISCONSIN

CITY           SKY/WX    TMP DP  RH WIND       PRES   REMARKS
WAUSAU         CLOUDY    25  17  72 W14       29.67R WCI  13
MOSINEE        MOCLDY    25  19  80 W12G17    29.69R WCI  14
MARSHFIELD     PTCLDY    24  13  62 NW16G28   29.73R WCI  11
STEVENS POINT  CLOUDY    25  15  64 W8        29.71R WCI  16
WAUPACA        CLOUDY    31  21  65 W12G17    29.71R WCI  22
WAUTOMA        CLOUDY    29  21  71 NW18      29.74R WCI  17
WISC RAPIDS    CLOUDY    28  17  63 W10       29.75R WCI  19
CAMP DOUGLAS   CLOUDY    28  21  74 W12G22    29.77R WCI  18
$$

WIZ011>013-019>022-031-037>040-048>050-040300-
NORTHEAST WISCONSIN

CITY           SKY/WX    TMP DP  RH WIND       PRES   REMARKS
ANTIGO         FLURRIES  23  16  75 W15       29.63R WCI  10
SHAWANO        CLOUDY    30  21  69 W6        29.68R WCI  24
OCONTO         CLOUDY    28  21  77 W8        29.66R WCI  19
STURGEON BAY   CLOUDY    27  19  74 W13G18    29.66R WCI  16
GREEN BAY      CLOUDY    29  20  69 W12       29.69R WCI  19
MANITOWOC      CLOUDY    28  23  81 W7        29.71R WCI  21
APPLETON       CLOUDY    28  19  69 W15       29.70R WCI  17
CLINTONVILLE   CLOUDY    28  21  74 W8        29.69R WCI  20
OSHKOSH        CLOUDY    29  21  72 W9        29.73R WCI  20
$$

WIZ032>034-041-042-053>061-040300-
SOUTHWEST WISCONSIN

CITY           SKY/WX    TMP DP  RH WIND       PRES   REMARKS
LA CROSSE      PTCLDY    24  13  62 W17       29.85R WCI  11
SPARTA         CLOUDY    28  18  66 W14G20    29.81R WCI  17
VIROQUA        MOCLDY    25  18  76 NW17G24   29.80R WCI  11
BOSCOBEL       CLOUDY    31  21  66 W9        29.83R WCI  23
PRAIRIE DU CHI CLOUDY    27  17  67 W21G28    29.86R WCI  13
PLATTEVILLE    CLOUDY    29  24  82 W18       29.82R WCI  16
$$

WIZ056-057-062-063-064-067-068-040300-
SOUTH CENTRAL WISCONSIN

CITY           SKY/WX    TMP DP  RH WIND       PRES   REMARKS
REEDSBURG      CLOUDY    29  22  76 W12       29.77R WCI  19
BARABOO/DELLS  CLOUDY    29  20  69 NW14G21   29.76R WCI  19
LONE ROCK      CLOUDY    31  21  66 NW14G23   29.80R WCI  21
MINERAL POINT  CLOUDY    30  25  80 W15G21    29.78R WCI  19
MADISON        CLOUDY    30  22  72 W6        29.78R WCI  24
MIDDLETON      CLOUDY    31  23  72 W10       29.78R WCI  23
WATERTOWN      CLOUDY    28  24  84 SW5       29.76R WCI  23
MONROE         CLOUDY    30  27  86 W13       29.78R WCI  20
JANESVILLE     CLOUDY    32  25  74 W6        29.78R WCI  26
$$

WIZ051-052-058>065-066-070>072-040300-
SOUTHEAST WISCONSIN

CITY           SKY/WX    TMP DP  RH WIND       PRES   REMARKS
MILWAUKEE      CLOUDY    31  21  66 W9        29.77R WCI  23
WAUKESHA       CLOUDY    27  21  80 W9        29.76R WCI  17
MILWAUKEE/TIMM CLOUDY    28  21  74 W10G16    29.76R WCI  19
RACINE         CLOUDY    31  22  69 W9        29.79R WCI  23
BURLINGTON     CLOUDY    28  22  76 W6        29.79R WCI  22
KENOSHA        CLOUDY    31  24  75 W12       29.78R WCI  22
FOND DU LAC    CLOUDY    29  21  72 W10       29.73R WCI  20
SHEBOYGAN      CLOUDY    29  21  72 W10       29.72R WCI  20
WEST BEND      CLOUDY    28  21  74 W8        29.73R WCI  20
JUNEAU         CLOUDY    28  23  82 SW9       29.76R WCI  19
$$

LSZ147-162-040300-
LAKE SUPERIOR

STATION/POSITION TIME  TEMP    WIND        PRES    WAVE
                       AIR SEA DIR/SP/G            HT/PER
                 (UTC) (F)     (DEG/KT/KT) (MB)    (FT/S)
DEVILS ISLAND    0200   19     290/ 25/ 30 1008.0R
PORT WING        0120   18     280/ 20     1008.1R
SAXON HARBOR     0100   21     280/  8/ 15 1006.1R
$$

LMZ867-665-643>646-040300-
LAKE MICHIGAN

STATION/POSITION TIME  TEMP    WIND        PRES    WAVE
                       AIR SEA DIR/SP/G            HT/PER
                 (UTC) (F)     (DEG/KT/KT) (MB)    (FT/S)
NORTHPORT PIER   0201   28     240/  5/ 12 1003.7R
SISTER BAY       0113   24     290/ 12/ 13   N/A
KEWAUNEE LAKESHO 0100   27     260/ 10/ 16 1003.4R
SHEBOYGAN LAKESH 0200   30     260/  5/  6 1007.8R
PORT WASHINGTON  0120   30     280/  3/  8 1008.1R
MILWAUKEE LAKESH 0100   31     290/  9/ 12   N/A
KENOSHA   LAKESH 0200   32     280/  9/ 15 1008.8R
$$

TC  - TEMPERATURE IN CELSIUS
VSB - VISIBILITY IN STATUTE MILES
WCI - WIND CHILL INDEX
HX  - HEAT INDEX



USA.gov is the U.S. government's official web portal to all federal, state and local government web resources and services.